Time,TemperatureF,DewpointF,PressureIn,WindDirection,WindDirectionDegrees,WindSpeedMPH,WindSpeedGustMPH,Humidity,HourlyPrecipIn,Conditions,Clouds,dailyrainin,SoftwareType,DateUTC
2013-01-21 00:00:00,12.6,7.0,30.27,West,278,9.0,10.0,78,0.00,,,0.00,Wunderground v.1.15,2013-01-21 06:00:00,
2013-01-21 00:02:00,12.6,7.0,30.27,West,278,9.0,10.0,78,0.00,,,0.00,Wunderground v.1.15,2013-01-21 06:02:00,
2013-01-21 00:06:00,12.5,7.2,30.27,West,278,9.0,10.0,79,0.00,,,0.00,Wunderground v.1.15,2013-01-21 06:06:00,
2013-01-21 00:08:00,12.5,7.2,30.27,West,273,9.0,12.0,79,0.00,,,0.00,Wunderground v.1.15,2013-01-21 06:08:00,
2013-01-21 00:10:00,12.4,7.1,30.27,WNW,300,9.0,9.0,79,0.00,,,0.00,Wunderground v.1.15,2013-01-21 06:10:00,
2013-01-21 00:12:00,12.4,7.1,30.27,WNW,293,10.0,10.0,79,0.00,,,0.00,Wunderground v.1.15,2013-01-21 06:12:00,
2013-01-21 00:14:00,12.4,7.1,30.27,WNW,300,10.0,10.0,79,0.00,,,0.00,Wunderground v.1.15,2013-01-21 06:14:00,
2013-01-21 00:16:00,12.3,7.0,30.27,West,280,10.0,14.0,79,0.00,,,0.00,Wunderground v.1.15,2013-01-21 06:16:00,
2013-01-21 00:20:00,12.3,6.7,30.26,West,262,10.0,16.0,78,0.00,,,0.00,Wunderground v.1.15,2013-01-21 06:20:00,
2013-01-21 00:24:00,12.3,7.0,30.26,WNW,298,11.0,16.0,79,0.00,,,0.00,Wunderground v.1.15,2013-01-21 06:24:00,
2013-01-21 00:26:00,12.3,7.0,30.26,West,274,11.0,16.0,79,0.00,,,0.00,Wunderground v.1.15,2013-01-21 06:26:00,
2013-01-21 00:32:00,12.3,7.3,30.26,WNW,283,9.0,13.0,80,0.00,,,0.00,Wunderground v.1.15,2013-01-21 06:32:00,
2013-01-21 00:36:00,12.5,7.5,30.26,WSW,256,9.0,13.0,80,0.00,,,0.00,Wunderground v.1.15,2013-01-21 06:36:00,
2013-01-21 00:38:00,12.6,7.3,30.26,WNW,295,10.0,19.0,79,0.00,,,0.00,Wunderground v.1.15,2013-01-21 06:38:00,
2013-01-21 00:40:00,12.6,7.0,30.26,WNW,295,10.0,12.0,78,0.00,,,0.00,Wunderground v.1.15,2013-01-21 06:40:00,
2013-01-21 00:44:00,12.6,6.8,30.26,NW,311,11.0,13.0,77,0.00,,,0.00,Wunderground v.1.15,2013-01-21 06:44:00,
2013-01-21 00:50:00,12.7,7.1,30.26,West,277,12.0,13.0,78,0.00,,,0.00,Wunderground v.1.15,2013-01-21 06:50:00,
2013-01-21 00:52:00,12.7,6.9,30.26,West,275,13.0,13.0,77,0.00,,,0.00,Wunderground v.1.15,2013-01-21 06:52:00,
2013-01-21 00:54:00,12.7,6.9,30.26,WNW,293,13.0,13.0,77,0.00,,,0.00,Wunderground v.1.15,2013-01-21 06:54:00,
2013-01-21 00:58:00,12.7,7.1,30.26,WNW,293,15.0,15.0,78,0.00,,,0.00,Wunderground v.1.15,2013-01-21 06:58:00,
2013-01-21 01:04:00,12.8,7.2,30.26,WNW,284,14.0,16.0,78,0.00,,,0.00,Wunderground v.1.15,2013-01-21 07:04:00,
2013-01-21 01:06:00,12.8,6.9,30.26,WNW,285,13.0,16.0,77,0.00,,,0.00,Wunderground v.1.15,2013-01-21 07:06:00,
2013-01-21 01:08:00,12.8,7.2,30.26,NW,304,12.0,16.0,78,0.00,,,0.00,Wunderground v.1.15,2013-01-21 07:08:00,
2013-01-21 01:10:00,12.8,6.9,30.26,WNW,300,12.0,12.0,77,0.00,,,0.00,Wunderground v.1.15,2013-01-21 07:10:00,
2013-01-21 01:14:00,12.8,7.5,30.26,West,280,13.0,14.0,79,0.00,,,0.00,Wunderground v.1.15,2013-01-21 07:14:00,
2013-01-21 01:16:00,12.8,7.8,30.26,NW,318,14.0,14.0,80,0.00,,,0.00,Wunderground v.1.15,2013-01-21 07:16:00,
2013-01-21 01:20:00,12.7,7.7,30.27,WNW,301,14.0,15.0,80,0.00,,,0.00,Wunderground v.1.15,2013-01-21 07:20:00,
2013-01-21 01:24:00,12.8,8.1,30.27,WNW,297,13.0,15.0,81,0.00,,,0.00,Wunderground v.1.15,2013-01-21 07:24:00,
2013-01-21 01:26:00,12.9,8.2,30.27,West,270,12.0,15.0,81,0.00,,,0.00,Wunderground v.1.15,2013-01-21 07:26:00,
2013-01-21 01:30:00,12.9,8.2,30.27,WNW,300,11.0,12.0,81,0.00,,,0.00,Wunderground v.1.15,2013-01-21 07:30:00,
2013-01-21 01:34:00,12.9,8.4,30.27,NW,309,11.0,13.0,82,0.00,,,0.00,Wunderground v.1.15,2013-01-21 07:34:00,
2013-01-21 01:38:00,12.9,7.9,30.27,NW,313,11.0,13.0,80,0.00,,,0.00,Wunderground v.1.15,2013-01-21 07:38:00,
2013-01-21 01:40:00,12.9,7.6,30.27,NW,309,11.0,17.0,79,0.00,,,0.00,Wunderground v.1.15,2013-01-21 07:40:00,
2013-01-21 01:42:00,12.9,7.3,30.27,WNW,289,12.0,17.0,78,0.00,,,0.00,Wunderground v.1.15,2013-01-21 07:42:00,
2013-01-21 01:44:00,13.0,7.7,30.27,WNW,286,12.0,17.0,79,0.00,,,0.00,Wunderground v.1.15,2013-01-21 07:44:00,
2013-01-21 01:48:00,13.0,7.7,30.27,West,281,11.0,17.0,79,0.00,,,0.00,Wunderground v.1.15,2013-01-21 07:48:00,
2013-01-21 01:52:00,13.0,7.4,30.26,WSW,256,10.0,14.0,78,0.00,,,0.00,Wunderground v.1.15,2013-01-21 07:52:00,
2013-01-21 01:54:00,13.0,7.7,30.26,West,266,9.0,14.0,79,0.00,,,0.00,Wunderground v.1.15,2013-01-21 07:54:00,
2013-01-21 01:56:00,13.0,8.0,30.26,West,273,10.0,14.0,80,0.00,,,0.00,Wunderground v.1.15,2013-01-21 07:56:00,
2013-01-21 01:58:00,13.0,8.3,30.26,WSW,242,9.0,14.0,81,0.00,,,0.00,Wunderground v.1.15,2013-01-21 07:58:00,
2013-01-21 02:02:00,13.0,8.0,30.26,West,271,9.0,9.0,80,0.00,,,0.00,Wunderground v.1.15,2013-01-21 08:02:00,
2013-01-21 02:06:00,13.0,7.7,30.26,West,271,9.0,12.0,79,0.00,,,0.00,Wunderground v.1.15,2013-01-21 08:06:00,
2013-01-21 02:10:00,13.0,7.7,30.25,WNW,297,9.0,14.0,79,0.00,,,0.00,Wunderground v.1.15,2013-01-21 08:10:00,
2013-01-21 02:12:00,13.0,7.4,30.25,WNW,288,9.0,14.0,78,0.00,,,0.00,Wunderground v.1.15,2013-01-21 08:12:00,
2013-01-21 02:14:00,13.0,7.4,30.25,West,259,9.0,14.0,78,0.00,,,0.00,Wunderground v.1.15,2013-01-21 08:14:00,
2013-01-21 02:18:00,13.1,7.2,30.25,NW,311,9.0,14.0,77,0.00,,,0.00,Wunderground v.1.15,2013-01-21 08:18:00,
2013-01-21 02:20:00,13.1,7.2,30.25,WNW,282,9.0,11.0,77,0.00,,,0.00,Wunderground v.1.15,2013-01-21 08:20:00,
2013-01-21 02:22:00,13.2,7.3,30.25,WSW,256,9.0,11.0,77,0.00,,,0.00,Wunderground v.1.15,2013-01-21 08:22:00,
2013-01-21 02:24:00,13.2,7.3,30.25,WNW,300,9.0,11.0,77,0.00,,,0.00,Wunderground v.1.15,2013-01-21 08:24:00,
2013-01-21 02:26:00,13.2,7.3,30.25,WNW,288,8.0,11.0,77,0.00,,,0.00,Wunderground v.1.15,2013-01-21 08:26:00,
2013-01-21 02:28:00,13.2,7.3,30.25,West,274,8.0,11.0,77,0.00,,,0.00,Wunderground v.1.15,2013-01-21 08:28:00,
2013-01-21 02:30:00,13.2,7.3,30.25,NW,309,8.0,10.0,77,0.00,,,0.00,Wunderground v.1.15,2013-01-21 08:30:00,
2013-01-21 02:32:00,13.2,7.0,30.25,WNW,290,9.0,10.0,76,0.00,,,0.00,Wunderground v.1.15,2013-01-21 08:32:00,
2013-01-21 02:34:00,13.2,7.0,30.25,WNW,294,9.0,10.0,76,0.00,,,0.00,Wunderground v.1.15,2013-01-21 08:34:00,
2013-01-21 02:36:00,13.2,7.0,30.25,West,281,9.0,11.0,76,0.00,,,0.00,Wunderground v.1.15,2013-01-21 08:36:00,
2013-01-21 02:40:00,13.3,7.1,30.24,WNW,285,10.0,13.0,76,0.00,,,0.00,Wunderground v.1.15,2013-01-21 08:40:00,
2013-01-21 02:44:00,13.3,7.1,30.24,West,262,11.0,13.0,76,0.00,,,0.00,Wunderground v.1.15,2013-01-21 08:44:00,
2013-01-21 02:46:00,13.3,7.1,30.24,WNW,287,11.0,13.0,76,0.00,,,0.00,Wunderground v.1.15,2013-01-21 08:46:00,
2013-01-21 02:50:00,13.4,7.5,30.24,West,278,10.0,12.0,77,0.00,,,0.00,Wunderground v.1.15,2013-01-21 08:50:00,
2013-01-21 02:52:00,13.4,7.2,30.24,West,266,10.0,12.0,76,0.00,,,0.00,Wunderground v.1.15,2013-01-21 08:52:00,
2013-01-21 02:56:00,13.3,7.1,30.24,WNW,290,11.0,12.0,76,0.00,,,0.00,Wunderground v.1.15,2013-01-21 08:56:00,
2013-01-21 02:58:00,13.3,7.4,30.24,West,274,11.0,12.0,77,0.00,,,0.00,Wunderground v.1.15,2013-01-21 08:58:00,
2013-01-21 03:00:00,13.4,7.2,30.24,WNW,302,11.0,11.0,76,0.00,,,0.00,Wunderground v.1.15,2013-01-21 09:00:00,
2013-01-21 03:02:00,13.4,7.2,30.24,WNW,300,10.0,11.0,76,0.00,,,0.00,Wunderground v.1.15,2013-01-21 09:02:00,
2013-01-21 03:08:00,13.4,7.5,30.24,WNW,285,9.0,11.0,77,0.00,,,0.00,Wunderground v.1.15,2013-01-21 09:08:00,
2013-01-21 03:10:00,13.4,7.5,30.24,WNW,302,9.0,9.0,77,0.00,,,0.00,Wunderground v.1.15,2013-01-21 09:10:00,
2013-01-21 03:14:00,13.4,7.5,30.24,West,278,9.0,10.0,77,0.00,,,0.00,Wunderground v.1.15,2013-01-21 09:14:00,
2013-01-21 03:16:00,13.4,7.5,30.24,WNW,288,10.0,10.0,77,0.00,,,0.00,Wunderground v.1.15,2013-01-21 09:16:00,
2013-01-21 03:18:00,13.4,7.8,30.24,SW,235,10.0,12.0,78,0.00,,,0.00,Wunderground v.1.15,2013-01-21 09:18:00,
2013-01-21 03:20:00,13.5,7.6,30.24,West,271,9.0,9.0,77,0.00,,,0.00,Wunderground v.1.15,2013-01-21 09:20:00,
2013-01-21 03:22:00,13.5,7.6,30.24,WSW,240,9.0,9.0,77,0.00,,,0.00,Wunderground v.1.15,2013-01-21 09:22:00,
2013-01-21 03:28:00,13.6,7.4,30.24,WNW,283,9.0,12.0,76,0.00,,,0.00,Wunderground v.1.15,2013-01-21 09:28:00,
2013-01-21 03:30:00,13.6,7.4,30.24,WNW,287,9.0,9.0,76,0.00,,,0.00,Wunderground v.1.15,2013-01-21 09:30:00,
2013-01-21 03:34:00,13.6,7.7,30.23,West,278,10.0,12.0,77,0.00,,,0.00,Wunderground v.1.15,2013-01-21 09:34:00,
2013-01-21 03:38:00,13.6,8.3,30.23,West,277,10.0,12.0,79,0.00,,,0.00,Wunderground v.1.15,2013-01-21 09:38:00,
2013-01-21 03:40:00,13.5,8.2,30.23,WNW,295,10.0,15.0,79,0.00,,,0.00,Wunderground v.1.15,2013-01-21 09:40:00,
2013-01-21 03:44:00,13.3,8.3,30.22,West,278,9.0,15.0,80,0.00,,,0.00,Wunderground v.1.15,2013-01-21 09:44:00,
2013-01-21 03:46:00,13.3,8.3,30.22,WSW,256,10.0,15.0,80,0.00,,,0.00,Wunderground v.1.15,2013-01-21 09:46:00,
2013-01-21 03:50:00,13.4,8.4,30.22,WSW,255,10.0,13.0,80,0.00,,,0.00,Wunderground v.1.15,2013-01-21 09:50:00,
2013-01-21 03:52:00,13.4,8.4,30.22,West,262,10.0,14.0,80,0.00,,,0.00,Wunderground v.1.15,2013-01-21 09:52:00,
2013-01-21 03:54:00,13.2,8.5,30.22,West,275,10.0,14.0,81,0.00,,,0.00,Wunderground v.1.15,2013-01-21 09:54:00,
2013-01-21 03:58:00,13.1,8.4,30.22,West,262,10.0,14.0,81,0.00,,,0.00,Wunderground v.1.15,2013-01-21 09:58:00,
2013-01-21 04:00:00,13.1,7.8,30.22,West,273,11.0,15.0,79,0.00,,,0.00,Wunderground v.1.15,2013-01-21 10:00:00,
2013-01-21 04:04:00,13.1,7.5,30.22,WNW,287,11.0,15.0,78,0.00,,,0.00,Wunderground v.1.15,2013-01-21 10:04:00,
2013-01-21 04:06:00,13.0,7.7,30.22,WNW,286,12.0,15.0,79,0.00,,,0.00,Wunderground v.1.15,2013-01-21 10:06:00,
2013-01-21 04:08:00,13.1,8.1,30.22,NW,326,12.0,15.0,80,0.00,,,0.00,Wunderground v.1.15,2013-01-21 10:08:00,
2013-01-21 04:10:00,13.0,8.3,30.22,WNW,286,12.0,15.0,81,0.00,,,0.00,Wunderground v.1.15,2013-01-21 10:10:00,
2013-01-21 04:12:00,13.0,8.3,30.22,WSW,250,12.0,15.0,81,0.00,,,0.00,Wunderground v.1.15,2013-01-21 10:12:00,
2013-01-21 04:14:00,12.9,8.7,30.22,WNW,288,12.0,16.0,83,0.00,,,0.00,Wunderground v.1.15,2013-01-21 10:14:00,
2013-01-21 04:16:00,12.6,8.9,30.22,WNW,291,13.0,18.0,85,0.00,,,0.00,Wunderground v.1.15,2013-01-21 10:16:00,
2013-01-21 04:18:00,12.2,8.6,30.22,WNW,293,14.0,19.0,85,0.00,,,0.00,Wunderground v.1.15,2013-01-21 10:18:00,
2013-01-21 04:20:00,12.1,8.5,30.22,WNW,293,15.0,15.0,85,0.00,,,0.00,Wunderground v.1.15,2013-01-21 10:20:00,
2013-01-21 04:22:00,11.9,8.0,30.22,WNW,295,16.0,16.0,84,0.00,,,0.00,Wunderground v.1.15,2013-01-21 10:22:00,
2013-01-21 04:26:00,11.5,5.7,30.22,WSW,255,17.0,17.0,77,0.00,,,0.00,Wunderground v.1.15,2013-01-21 10:26:00,
2013-01-21 04:32:00,10.9,4.5,30.22,WNW,297,17.0,19.0,75,0.00,,,0.00,Wunderground v.1.15,2013-01-21 10:32:00,
2013-01-21 04:34:00,10.8,4.1,30.22,WNW,286,17.0,19.0,74,0.00,,,0.00,Wunderground v.1.15,2013-01-21 10:34:00,
2013-01-21 04:40:00,10.6,3.9,30.22,NW,312,16.0,16.0,74,0.00,,,0.00,Wunderground v.1.15,2013-01-21 10:40:00,
2013-01-21 04:42:00,10.5,3.8,30.22,NW,304,16.0,16.0,74,0.00,,,0.00,Wunderground v.1.15,2013-01-21 10:42:00,
2013-01-21 04:44:00,10.5,3.8,30.23,WNW,300,16.0,16.0,74,0.00,,,0.00,Wunderground v.1.15,2013-01-21 10:44:00,
2013-01-21 04:46:00,10.4,3.8,30.22,WNW,286,16.0,16.0,74,0.00,,,0.00,Wunderground v.1.15,2013-01-21 10:46:00,
2013-01-21 04:48:00,10.4,3.8,30.22,NW,309,15.0,18.0,74,0.00,,,0.00,Wunderground v.1.15,2013-01-21 10:48:00,
2013-01-21 04:50:00,10.4,3.8,30.22,WNW,290,16.0,16.0,74,0.00,,,0.00,Wunderground v.1.15,2013-01-21 10:50:00,
2013-01-21 04:54:00,10.3,3.9,30.22,WNW,284,15.0,16.0,75,0.00,,,0.00,Wunderground v.1.15,2013-01-21 10:54:00,
2013-01-21 05:00:00,10.1,3.5,30.22,NW,314,15.0,15.0,74,0.00,,,0.00,Wunderground v.1.15,2013-01-21 11:00:00,
2013-01-21 05:04:00,10.1,3.8,30.22,WNW,300,15.0,15.0,75,0.00,,,0.00,Wunderground v.1.15,2013-01-21 11:04:00,
2013-01-21 05:06:00,10.0,3.7,30.23,WNW,288,14.0,15.0,75,0.00,,,0.00,Wunderground v.1.15,2013-01-21 11:06:00,
2013-01-21 05:08:00,10.0,3.9,30.23,WNW,288,13.0,15.0,76,0.00,,,0.00,Wunderground v.1.15,2013-01-21 11:08:00,
2013-01-21 05:10:00,9.9,3.8,30.23,West,281,13.0,13.0,76,0.00,,,0.00,Wunderground v.1.15,2013-01-21 11:10:00,
2013-01-21 05:16:00,9.8,3.7,30.23,WNW,301,11.0,15.0,76,0.00,,,0.00,Wunderground v.1.15,2013-01-21 11:16:00,
2013-01-21 05:18:00,9.8,3.7,30.23,WNW,300,12.0,18.0,76,0.00,,,0.00,Wunderground v.1.15,2013-01-21 11:18:00,
2013-01-21 05:20:00,9.9,3.8,30.23,WNW,294,13.0,17.0,76,0.00,,,0.00,Wunderground v.1.15,2013-01-21 11:20:00,
2013-01-21 05:24:00,9.9,3.6,30.23,WNW,300,16.0,17.0,75,0.00,,,0.00,Wunderground v.1.15,2013-01-21 11:24:00,
2013-01-21 05:26:00,10.0,3.7,30.23,NW,314,16.0,17.0,75,0.00,,,0.00,Wunderground v.1.15,2013-01-21 11:26:00,
2013-01-21 05:30:00,9.9,3.8,30.23,WNW,297,17.0,17.0,76,0.00,,,0.00,Wunderground v.1.15,2013-01-21 11:30:00,
2013-01-21 05:32:00,9.9,3.8,30.23,NW,317,17.0,23.0,76,0.00,,,0.00,Wunderground v.1.15,2013-01-21 11:32:00,
2013-01-21 05:38:00,9.5,2.6,30.23,NW,304,18.0,23.0,73,0.00,,,0.00,Wunderground v.1.15,2013-01-21 11:38:00,
2013-01-21 05:44:00,9.2,1.4,30.23,WNW,298,17.0,19.0,70,0.00,,,0.00,Wunderground v.1.15,2013-01-21 11:44:00,
2013-01-21 05:46:00,9.0,0.9,30.23,West,264,17.0,19.0,69,0.00,,,0.00,Wunderground v.1.15,2013-01-21 11:46:00,
2013-01-21 05:48:00,8.8,0.4,30.23,West,281,16.0,19.0,68,0.00,,,0.00,Wunderground v.1.15,2013-01-21 11:48:00,
2013-01-21 05:50:00,8.6,0.2,30.23,WNW,283,16.0,16.0,68,0.00,,,0.00,Wunderground v.1.15,2013-01-21 11:50:00,
2013-01-21 05:52:00,8.4,0.0,30.23,West,280,16.0,18.0,68,0.00,,,0.00,Wunderground v.1.15,2013-01-21 11:52:00,
2013-01-21 05:56:00,8.2,0.4,30.23,WNW,284,14.0,18.0,70,0.00,,,0.00,Wunderground v.1.15,2013-01-21 11:56:00,
2013-01-21 06:00:00,8.0,0.2,30.23,WNW,288,13.0,20.0,70,0.00,,,0.00,Wunderground v.1.15,2013-01-21 12:00:00,
2013-01-21 06:04:00,7.7,-0.4,30.23,West,270,12.0,20.0,69,0.00,,,0.00,Wunderground v.1.15,2013-01-21 12:04:00,
2013-01-21 06:06:00,7.7,-0.4,30.23,West,278,13.0,20.0,69,0.00,,,0.00,Wunderground v.1.15,2013-01-21 12:06:00,
2013-01-21 06:12:00,7.5,0.1,30.23,NNW,333,13.0,14.0,71,0.00,,,0.00,Wunderground v.1.15,2013-01-21 12:12:00,
2013-01-21 06:14:00,7.4,-0.3,30.23,West,281,14.0,18.0,70,0.00,,,0.00,Wunderground v.1.15,2013-01-21 12:14:00,
2013-01-21 06:16:00,7.3,-0.4,30.24,WNW,294,14.0,18.0,70,0.00,,,0.00,Wunderground v.1.15,2013-01-21 12:16:00,
2013-01-21 06:18:00,7.2,-0.8,30.24,WSW,256,15.0,24.0,69,0.00,,,0.00,Wunderground v.1.15,2013-01-21 12:18:00,
2013-01-21 06:20:00,7.1,-0.6,30.23,WNW,300,16.0,23.0,70,0.00,,,0.00,Wunderground v.1.15,2013-01-21 12:20:00,
2013-01-21 06:22:00,7.0,-1.0,30.23,WNW,285,18.0,27.0,69,0.00,,,0.00,Wunderground v.1.15,2013-01-21 12:22:00,
2013-01-21 06:24:00,6.9,-1.1,30.24,WNW,291,19.0,27.0,69,0.00,,,0.00,Wunderground v.1.15,2013-01-21 12:24:00,
2013-01-21 06:26:00,6.7,-1.6,30.24,West,277,19.0,27.0,68,0.00,,,0.00,Wunderground v.1.15,2013-01-21 12:26:00,
2013-01-21 06:32:00,6.4,-1.6,30.24,NW,309,17.0,20.0,69,0.00,,,0.00,Wunderground v.1.15,2013-01-21 12:32:00,
2013-01-21 06:34:00,6.3,-2.0,30.25,West,263,17.0,20.0,68,0.00,,,0.00,Wunderground v.1.15,2013-01-21 12:34:00,
2013-01-21 06:38:00,6.3,-2.3,30.25,WNW,294,17.0,20.0,67,0.00,,,0.00,Wunderground v.1.15,2013-01-21 12:38:00,
2013-01-21 06:40:00,6.3,-2.3,30.25,West,280,17.0,18.0,67,0.00,,,0.00,Wunderground v.1.15,2013-01-21 12:40:00,
2013-01-21 06:42:00,6.2,-2.7,30.25,WNW,293,17.0,18.0,66,0.00,,,0.00,Wunderground v.1.15,2013-01-21 12:42:00,
2013-01-21 06:44:00,6.2,-2.7,30.25,WNW,293,17.0,18.0,66,0.00,,,0.00,Wunderground v.1.15,2013-01-21 12:44:00,
2013-01-21 06:46:00,6.2,-3.4,30.25,NW,311,17.0,18.0,64,0.00,,,0.00,Wunderground v.1.15,2013-01-21 12:46:00,
2013-01-21 06:52:00,6.1,-3.5,30.25,WNW,297,16.0,18.0,64,0.00,,,0.00,Wunderground v.1.15,2013-01-21 12:52:00,
2013-01-21 06:58:00,6.0,-3.3,30.25,West,278,15.0,18.0,65,0.00,,,0.00,Wunderground v.1.15,2013-01-21 12:58:00,
2013-01-21 07:00:00,6.0,-3.6,30.25,WNW,289,15.0,18.0,64,0.00,,,0.00,Wunderground v.1.15,2013-01-21 13:00:00,
2013-01-21 07:04:00,5.9,-3.7,30.25,WNW,292,16.0,19.0,64,0.00,,,0.00,Wunderground v.1.15,2013-01-21 13:04:00,
2013-01-21 07:06:00,5.9,-3.3,30.25,WNW,293,16.0,19.0,65,0.00,,,0.00,Wunderground v.1.15,2013-01-21 13:06:00,
2013-01-21 07:08:00,5.9,-3.0,30.26,WNW,284,16.0,19.0,66,0.00,,,0.00,Wunderground v.1.15,2013-01-21 13:08:00,
2013-01-21 07:10:00,5.9,-2.7,30.25,WNW,286,15.0,15.0,67,0.00,,,0.00,Wunderground v.1.15,2013-01-21 13:10:00,
2013-01-21 07:12:00,5.8,-2.8,30.26,WNW,284,14.0,17.0,67,0.00,,,0.00,Wunderground v.1.15,2013-01-21 13:12:00,
2013-01-21 07:18:00,5.7,-3.2,30.26,WNW,300,13.0,17.0,66,0.00,,,0.00,Wunderground v.1.15,2013-01-21 13:18:00,
2013-01-21 07:20:00,5.7,-2.9,30.26,WNW,293,14.0,14.0,67,0.00,,,0.00,Wunderground v.1.15,2013-01-21 13:20:00,
2013-01-21 07:22:00,5.6,-2.7,30.26,WNW,295,14.0,14.0,68,0.00,,,0.00,Wunderground v.1.15,2013-01-21 13:22:00,
2013-01-21 07:24:00,5.6,-2.7,30.26,West,277,14.0,14.0,68,0.00,,,0.00,Wunderground v.1.15,2013-01-21 13:24:00,
2013-01-21 07:28:00,5.5,-3.1,30.26,WNW,291,15.0,20.0,67,0.00,,,0.00,Wunderground v.1.15,2013-01-21 13:28:00,
2013-01-21 07:30:00,5.5,-3.1,30.26,WNW,295,14.0,15.0,67,0.00,,,0.00,Wunderground v.1.15,2013-01-21 13:30:00,
2013-01-21 07:32:00,5.5,-2.8,30.26,WNW,287,15.0,21.0,68,0.00,,,0.00,Wunderground v.1.15,2013-01-21 13:32:00,
2013-01-21 07:34:00,5.5,-3.1,30.26,WNW,298,16.0,21.0,67,0.00,,,0.00,Wunderground v.1.15,2013-01-21 13:34:00,
2013-01-21 07:38:00,5.5,-3.4,30.26,WNW,295,17.0,22.0,66,0.00,,,0.00,Wunderground v.1.15,2013-01-21 13:38:00,
2013-01-21 07:40:00,5.4,-3.8,30.25,WNW,293,18.0,25.0,65,0.00,,,0.00,Wunderground v.1.15,2013-01-21 13:40:00,
2013-01-21 07:44:00,5.2,-3.7,30.26,WNW,295,20.0,26.0,66,0.00,,,0.00,Wunderground v.1.15,2013-01-21 13:44:00,
2013-01-21 07:46:00,5.2,-3.7,30.26,NW,307,20.0,26.0,66,0.00,,,0.00,Wunderground v.1.15,2013-01-21 13:46:00,
2013-01-21 07:48:00,5.2,-3.7,30.26,NW,304,21.0,26.0,66,0.00,,,0.00,Wunderground v.1.15,2013-01-21 13:48:00,
2013-01-21 07:50:00,5.2,-3.7,30.26,WNW,297,21.0,21.0,66,0.00,,,0.00,Wunderground v.1.15,2013-01-21 13:50:00,
2013-01-21 07:52:00,5.2,-3.4,30.26,WNW,295,20.0,21.0,67,0.00,,,0.00,Wunderground v.1.15,2013-01-21 13:52:00,
2013-01-21 07:58:00,5.3,-3.0,30.26,WNW,300,18.0,22.0,68,0.00,,,0.00,Wunderground v.1.15,2013-01-21 13:58:00,
2013-01-21 08:04:00,5.1,-3.8,30.27,West,277,18.0,25.0,66,0.00,,,0.00,Wunderground v.1.15,2013-01-21 14:04:00,
2013-01-21 08:08:00,5.0,-3.6,30.27,WNW,284,19.0,25.0,67,0.00,,,0.00,Wunderground v.1.15,2013-01-21 14:08:00,
2013-01-21 08:14:00,4.9,-3.7,30.27,WNW,289,20.0,21.0,67,0.00,,,0.00,Wunderground v.1.15,2013-01-21 14:14:00,
2013-01-21 08:16:00,4.9,-3.7,30.27,WNW,294,20.0,21.0,67,0.00,,,0.00,Wunderground v.1.15,2013-01-21 14:16:00,
2013-01-21 08:18:00,5.0,-3.3,30.27,West,277,21.0,21.0,68,0.00,,,0.00,Wunderground v.1.15,2013-01-21 14:18:00,
2013-01-21 08:20:00,5.0,-3.3,30.28,WNW,297,21.0,21.0,68,0.00,,,0.00,Wunderground v.1.15,2013-01-21 14:20:00,
2013-01-21 08:26:00,5.3,-2.7,30.28,WNW,290,18.0,21.0,69,0.00,,,0.00,Wunderground v.1.15,2013-01-21 14:26:00,
2013-01-21 08:28:00,5.4,-2.6,30.28,WNW,300,18.0,21.0,69,0.00,,,0.00,Wunderground v.1.15,2013-01-21 14:28:00,
2013-01-21 08:30:00,5.5,-2.2,30.28,WNW,293,17.0,21.0,70,0.00,,,0.00,Wunderground v.1.15,2013-01-21 14:30:00,
2013-01-21 08:32:00,5.4,-2.9,30.28,West,264,17.0,25.0,68,0.00,,,0.00,Wunderground v.1.15,2013-01-21 14:32:00,
2013-01-21 08:34:00,5.0,-3.6,30.28,WNW,285,18.0,25.0,67,0.00,,,0.00,Wunderground v.1.15,2013-01-21 14:34:00,
2013-01-21 08:36:00,4.9,-3.7,30.28,WNW,297,19.0,25.0,67,0.00,,,0.00,Wunderground v.1.15,2013-01-21 14:36:00,
2013-01-21 08:38:00,4.8,-3.5,30.28,WNW,295,19.0,25.0,68,0.00,,,0.00,Wunderground v.1.15,2013-01-21 14:38:00,
2013-01-21 08:40:00,4.8,-3.5,30.28,WNW,286,20.0,20.0,68,0.00,,,0.00,Wunderground v.1.15,2013-01-21 14:40:00,
2013-01-21 08:42:00,4.8,-3.5,30.28,WNW,298,19.0,20.0,68,0.00,,,0.00,Wunderground v.1.15,2013-01-21 14:42:00,
2013-01-21 08:46:00,4.5,-4.1,30.28,WNW,298,19.0,23.0,67,0.00,,,0.00,Wunderground v.1.15,2013-01-21 14:46:00,
2013-01-21 08:48:00,4.5,-4.1,30.29,WNW,300,19.0,23.0,67,0.00,,,0.00,Wunderground v.1.15,2013-01-21 14:48:00,
2013-01-21 08:50:00,4.6,-3.6,30.29,WNW,289,20.0,20.0,68,0.00,,,0.00,Wunderground v.1.15,2013-01-21 14:50:00,
2013-01-21 08:56:00,4.8,-3.5,30.29,WNW,293,19.0,23.0,68,0.00,,,0.00,Wunderground v.1.15,2013-01-21 14:56:00,
2013-01-21 08:58:00,4.7,-4.2,30.29,WNW,287,20.0,23.0,66,0.00,,,0.00,Wunderground v.1.15,2013-01-21 14:58:00,
2013-01-21 09:02:00,4.7,-3.9,30.29,WNW,288,19.0,20.0,67,0.00,,,0.00,Wunderground v.1.15,2013-01-21 15:02:00,
2013-01-21 09:06:00,5.2,-2.8,30.29,West,278,18.0,20.0,69,0.00,,,0.00,Wunderground v.1.15,2013-01-21 15:06:00,
2013-01-21 09:08:00,5.3,-3.0,30.29,NW,305,17.0,20.0,68,0.00,,,0.00,Wunderground v.1.15,2013-01-21 15:08:00,
2013-01-21 09:10:00,5.3,-3.0,30.30,WNW,302,16.0,16.0,68,0.00,,,0.00,Wunderground v.1.15,2013-01-21 15:10:00,
2013-01-21 09:12:00,5.3,-3.0,30.29,NW,309,16.0,21.0,68,0.00,,,0.00,Wunderground v.1.15,2013-01-21 15:12:00,
2013-01-21 09:14:00,5.1,-3.8,30.30,WNW,293,17.0,23.0,66,0.00,,,0.00,Wunderground v.1.15,2013-01-21 15:14:00,
2013-01-21 09:20:00,5.0,-3.6,30.30,West,280,17.0,17.0,67,0.00,,,0.00,Wunderground v.1.15,2013-01-21 15:20:00,
2013-01-21 09:22:00,5.0,-3.6,30.30,WNW,302,17.0,20.0,67,0.00,,,0.00,Wunderground v.1.15,2013-01-21 15:22:00,
2013-01-21 09:24:00,5.0,-3.3,30.31,WNW,290,16.0,20.0,68,0.00,,,0.00,Wunderground v.1.15,2013-01-21 15:24:00,
2013-01-21 09:28:00,4.9,-3.4,30.31,NW,317,15.0,20.0,68,0.00,,,0.00,Wunderground v.1.15,2013-01-21 15:28:00,
2013-01-21 09:30:00,5.0,-3.6,30.31,West,262,14.0,14.0,67,0.00,,,0.00,Wunderground v.1.15,2013-01-21 15:30:00,
2013-01-21 09:32:00,5.1,-3.2,30.31,WNW,295,15.0,15.0,68,0.00,,,0.00,Wunderground v.1.15,2013-01-21 15:32:00,
2013-01-21 09:36:00,5.1,-3.8,30.31,NW,324,16.0,19.0,66,0.00,,,0.00,Wunderground v.1.15,2013-01-21 15:36:00,
2013-01-21 09:38:00,5.1,-3.8,30.31,West,278,16.0,24.0,66,0.00,,,0.00,Wunderground v.1.15,2013-01-21 15:38:00,
2013-01-21 09:40:00,4.8,-4.4,30.31,WNW,293,17.0,17.0,65,0.00,,,0.00,Wunderground v.1.15,2013-01-21 15:40:00,
2013-01-21 09:46:00,4.9,-4.0,30.31,West,281,17.0,17.0,66,0.00,,,0.00,Wunderground v.1.15,2013-01-21 15:46:00,
2013-01-21 09:48:00,4.9,-4.3,30.31,WNW,290,17.0,20.0,65,0.00,,,0.00,Wunderground v.1.15,2013-01-21 15:48:00,
2013-01-21 09:52:00,4.9,-4.3,30.31,West,276,17.0,17.0,65,0.00,,,0.00,Wunderground v.1.15,2013-01-21 15:52:00,
2013-01-21 09:54:00,5.0,-4.5,30.31,WNW,298,17.0,17.0,64,0.00,,,0.00,Wunderground v.1.15,2013-01-21 15:54:00,
2013-01-21 09:56:00,5.2,-3.7,30.31,WNW,298,16.0,17.0,66,0.00,,,0.00,Wunderground v.1.15,2013-01-21 15:56:00,
2013-01-21 10:00:00,5.1,-4.4,30.31,WNW,298,17.0,23.0,64,0.00,,,0.00,Wunderground v.1.15,2013-01-21 16:00:00,
2013-01-21 10:02:00,5.1,-4.1,30.31,WNW,295,16.0,23.0,65,0.00,,,0.00,Wunderground v.1.15,2013-01-21 16:02:00,
2013-01-21 10:04:00,5.3,-3.6,30.31,West,271,17.0,23.0,66,0.00,,,0.00,Wunderground v.1.15,2013-01-21 16:04:00,
2013-01-21 10:06:00,5.2,-4.7,30.32,SW,228,17.0,23.0,63,0.00,,,0.00,Wunderground v.1.15,2013-01-21 16:06:00,
2013-01-21 10:08:00,5.1,-4.8,30.31,West,280,17.0,23.0,63,0.00,,,0.00,Wunderground v.1.15,2013-01-21 16:08:00,
2013-01-21 10:12:00,5.2,-4.3,30.32,WNW,295,17.0,18.0,64,0.00,,,0.00,Wunderground v.1.15,2013-01-21 16:12:00,
2013-01-21 10:14:00,5.4,-4.5,30.32,WNW,293,17.0,18.0,63,0.00,,,0.00,Wunderground v.1.15,2013-01-21 16:14:00,
2013-01-21 10:18:00,5.2,-5.0,30.32,WNW,293,17.0,18.0,62,0.00,,,0.00,Wunderground v.1.15,2013-01-21 16:18:00,
2013-01-21 10:20:00,5.3,-4.9,30.32,West,277,17.0,17.0,62,0.00,,,0.00,Wunderground v.1.15,2013-01-21 16:20:00,
2013-01-21 10:24:00,5.5,-4.7,30.32,WNW,292,17.0,22.0,62,0.00,,,0.00,Wunderground v.1.15,2013-01-21 16:24:00,
2013-01-21 10:26:00,5.5,-4.7,30.32,West,269,17.0,22.0,62,0.00,,,0.00,Wunderground v.1.15,2013-01-21 16:26:00,
2013-01-21 10:32:00,5.2,-5.0,30.32,WNW,285,18.0,25.0,62,0.00,,,0.00,Wunderground v.1.15,2013-01-21 16:32:00,
2013-01-21 10:34:00,5.3,-4.9,30.31,WNW,300,18.0,25.0,62,0.00,,,0.00,Wunderground v.1.15,2013-01-21 16:34:00,
2013-01-21 10:36:00,5.5,-4.4,30.32,WNW,298,18.0,25.0,63,0.00,,,0.00,Wunderground v.1.15,2013-01-21 16:36:00,
2013-01-21 10:42:00,5.6,-5.0,30.32,West,281,17.0,18.0,61,0.00,,,0.00,Wunderground v.1.15,2013-01-21 16:42:00,
2013-01-21 10:46:00,5.6,-5.0,30.32,WNW,286,17.0,18.0,61,0.00,,,0.00,Wunderground v.1.15,2013-01-21 16:46:00,
2013-01-21 10:48:00,5.6,-5.0,30.32,NW,309,16.0,21.0,61,0.00,,,0.00,Wunderground v.1.15,2013-01-21 16:48:00,
2013-01-21 10:52:00,5.6,-5.0,30.32,WNW,291,16.0,18.0,61,0.00,,,0.00,Wunderground v.1.15,2013-01-21 16:52:00,
2013-01-21 10:54:00,5.7,-5.2,30.32,NW,306,16.0,18.0,60,0.00,,,0.00,Wunderground v.1.15,2013-01-21 16:54:00,
2013-01-21 10:56:00,6.0,-4.2,30.32,WNW,297,17.0,18.0,62,0.00,,,0.00,Wunderground v.1.15,2013-01-21 16:56:00,
2013-01-21 11:00:00,5.9,-5.4,30.32,WNW,289,17.0,19.0,59,0.00,,,0.00,Wunderground v.1.15,2013-01-21 17:00:00,
2013-01-21 11:02:00,6.2,-4.7,30.32,WNW,295,18.0,19.0,60,0.00,,,0.00,Wunderground v.1.15,2013-01-21 17:02:00,
2013-01-21 11:06:00,6.1,-5.5,30.32,WNW,293,18.0,19.0,58,0.00,,,0.00,Wunderground v.1.15,2013-01-21 17:06:00,
2013-01-21 11:08:00,6.3,-5.0,30.32,WNW,295,18.0,19.0,59,0.00,,,0.00,Wunderground v.1.15,2013-01-21 17:08:00,
2013-01-21 11:12:00,6.2,-5.4,30.32,NW,309,17.0,18.0,58,0.00,,,0.00,Wunderground v.1.15,2013-01-21 17:12:00,
2013-01-21 11:14:00,6.3,-5.0,30.31,WNW,295,16.0,20.0,59,0.00,,,0.00,Wunderground v.1.15,2013-01-21 17:14:00,
2013-01-21 11:16:00,6.3,-5.3,30.31,WNW,295,16.0,20.0,58,0.00,,,0.00,Wunderground v.1.15,2013-01-21 17:16:00,
2013-01-21 11:18:00,6.1,-5.9,30.32,WNW,302,17.0,20.0,57,0.00,,,0.00,Wunderground v.1.15,2013-01-21 17:18:00,
2013-01-21 11:20:00,6.1,-5.9,30.31,WNW,294,17.0,17.0,57,0.00,,,0.00,Wunderground v.1.15,2013-01-21 17:20:00,
2013-01-21 11:22:00,6.2,-5.4,30.31,West,278,17.0,17.0,58,0.00,,,0.00,Wunderground v.1.15,2013-01-21 17:22:00,
2013-01-21 11:24:00,6.2,-5.1,30.31,SW,226,17.0,17.0,59,0.00,,,0.00,Wunderground v.1.15,2013-01-21 17:24:00,
2013-01-21 11:30:00,6.6,-4.7,30.31,WNW,295,16.0,18.0,59,0.00,,,0.00,Wunderground v.1.15,2013-01-21 17:30:00,
2013-01-21 11:32:00,6.5,-4.8,30.31,WNW,294,15.0,18.0,59,0.00,,,0.00,Wunderground v.1.15,2013-01-21 17:32:00,
2013-01-21 11:36:00,6.6,-4.7,30.31,NNW,330,16.0,18.0,59,0.00,,,0.00,Wunderground v.1.15,2013-01-21 17:36:00,
2013-01-21 11:38:00,6.8,-4.2,30.31,West,275,16.0,18.0,60,0.00,,,0.00,Wunderground v.1.15,2013-01-21 17:38:00,
2013-01-21 11:40:00,6.9,-4.4,30.31,West,259,16.0,16.0,59,0.00,,,0.00,Wunderground v.1.15,2013-01-21 17:40:00,
2013-01-21 11:44:00,7.0,-4.3,30.31,WSW,255,15.0,16.0,59,0.00,,,0.00,Wunderground v.1.15,2013-01-21 17:44:00,
2013-01-21 11:46:00,7.2,-4.1,30.31,NW,323,15.0,16.0,59,0.00,,,0.00,Wunderground v.1.15,2013-01-21 17:46:00,
2013-01-21 11:48:00,7.2,-4.5,30.31,WNW,300,15.0,19.0,58,0.00,,,0.00,Wunderground v.1.15,2013-01-21 17:48:00,
2013-01-21 11:50:00,7.3,-4.8,30.30,WNW,290,16.0,23.0,57,0.00,,,0.00,Wunderground v.1.15,2013-01-21 17:50:00,
2013-01-21 11:54:00,7.2,-4.9,30.31,WNW,286,17.0,23.0,57,0.00,,,0.00,Wunderground v.1.15,2013-01-21 17:54:00,
2013-01-21 11:56:00,7.3,-4.8,30.31,WNW,297,18.0,23.0,57,0.00,,,0.00,Wunderground v.1.15,2013-01-21 17:56:00,
2013-01-21 12:00:00,7.6,-4.9,30.30,NW,307,17.0,17.0,56,0.00,,,0.00,Wunderground v.1.15,2013-01-21 18:00:00,
2013-01-21 12:02:00,7.6,-5.2,30.30,WNW,298,16.0,20.0,55,0.00,,,0.00,Wunderground v.1.15,2013-01-21 18:02:00,
2013-01-21 12:06:00,7.8,-5.0,30.30,NNW,329,16.0,20.0,55,0.00,,,0.00,Wunderground v.1.15,2013-01-21 18:06:00,
2013-01-21 12:08:00,7.9,-5.3,30.30,WNW,295,16.0,20.0,54,0.00,,,0.00,Wunderground v.1.15,2013-01-21 18:08:00,
2013-01-21 12:10:00,8.0,-4.9,30.30,WNW,297,16.0,21.0,55,0.00,,,0.00,Wunderground v.1.15,2013-01-21 18:10:00,
2013-01-21 12:14:00,8.0,-4.9,30.30,WNW,288,16.0,21.0,55,0.00,,,0.00,Wunderground v.1.15,2013-01-21 18:14:00,
2013-01-21 12:20:00,8.0,-4.9,30.30,NNW,329,16.0,16.0,55,0.00,,,0.00,Wunderground v.1.15,2013-01-21 18:20:00,
2013-01-21 12:22:00,8.1,-4.4,30.30,WSW,246,16.0,16.0,56,0.00,,,0.00,Wunderground v.1.15,2013-01-21 18:22:00,
2013-01-21 12:24:00,8.1,-4.4,30.30,NW,309,17.0,17.0,56,0.00,,,0.00,Wunderground v.1.15,2013-01-21 18:24:00,
2013-01-21 12:28:00,8.1,-5.1,30.30,WNW,302,17.0,23.0,54,0.00,,,0.00,Wunderground v.1.15,2013-01-21 18:28:00,
2013-01-21 12:32:00,8.5,-4.4,30.30,WNW,289,16.0,22.0,55,0.00,,,0.00,Wunderground v.1.15,2013-01-21 18:32:00,
2013-01-21 12:36:00,8.5,-4.4,30.29,WNW,284,16.0,22.0,55,0.00,,,0.00,Wunderground v.1.15,2013-01-21 18:36:00,
2013-01-21 12:38:00,8.4,-4.9,30.29,WNW,300,15.0,22.0,54,0.00,,,0.00,Wunderground v.1.15,2013-01-21 18:38:00,
2013-01-21 12:40:00,8.5,-4.4,30.29,WNW,297,16.0,19.0,55,0.00,,,0.00,Wunderground v.1.15,2013-01-21 18:40:00,
2013-01-21 12:42:00,8.4,-4.5,30.29,WNW,297,16.0,19.0,55,0.00,,,0.00,Wunderground v.1.15,2013-01-21 18:42:00,
2013-01-21 12:46:00,8.7,-3.8,30.29,West,276,14.0,19.0,56,0.00,,,0.00,Wunderground v.1.15,2013-01-21 18:46:00,
2013-01-21 12:48:00,8.5,-4.4,30.29,WNW,294,15.0,19.0,55,0.00,,,0.00,Wunderground v.1.15,2013-01-21 18:48:00,
2013-01-21 12:52:00,8.4,-5.2,30.30,WNW,300,16.0,16.0,53,0.00,,,0.00,Wunderground v.1.15,2013-01-21 18:52:00,
2013-01-21 12:54:00,8.6,-4.7,30.29,NW,315,16.0,16.0,54,0.00,,,0.00,Wunderground v.1.15,2013-01-21 18:54:00,
2013-01-21 12:58:00,9.1,-3.8,30.29,WNW,293,16.0,18.0,55,0.00,,,0.00,Wunderground v.1.15,2013-01-21 18:58:00,
2013-01-21 13:00:00,9.1,-4.2,30.29,WNW,289,15.0,15.0,54,0.00,,,0.00,Wunderground v.1.15,2013-01-21 19:00:00,
2013-01-21 13:04:00,9.2,-4.5,30.29,West,273,16.0,16.0,53,0.00,,,0.00,Wunderground v.1.15,2013-01-21 19:04:00,
2013-01-21 13:06:00,9.1,-5.0,30.29,NNW,340,17.0,17.0,52,0.00,,,0.00,Wunderground v.1.15,2013-01-21 19:06:00,
2013-01-21 13:08:00,8.9,-4.8,30.29,WNW,301,18.0,18.0,53,0.00,,,0.00,Wunderground v.1.15,2013-01-21 19:08:00,
2013-01-21 13:10:00,8.9,-4.8,30.29,WNW,300,19.0,22.0,53,0.00,,,0.00,Wunderground v.1.15,2013-01-21 19:10:00,
2013-01-21 13:14:00,9.1,-5.0,30.29,NW,305,19.0,24.0,52,0.00,,,0.00,Wunderground v.1.15,2013-01-21 19:14:00,
2013-01-21 13:16:00,9.4,-3.5,30.29,NW,304,18.0,24.0,55,0.00,,,0.00,Wunderground v.1.15,2013-01-21 19:16:00,
2013-01-21 13:18:00,9.4,-3.9,30.29,NW,305,16.0,24.0,54,0.00,,,0.00,Wunderground v.1.15,2013-01-21 19:18:00,
2013-01-21 13:20:00,9.4,-3.9,30.29,WNW,293,15.0,22.0,54,0.00,,,0.00,Wunderground v.1.15,2013-01-21 19:20:00,
2013-01-21 13:22:00,9.2,-4.9,30.29,WNW,297,15.0,22.0,52,0.00,,,0.00,Wunderground v.1.15,2013-01-21 19:22:00,
2013-01-21 13:24:00,9.3,-4.4,30.29,WNW,300,14.0,22.0,53,0.00,,,0.00,Wunderground v.1.15,2013-01-21 19:24:00,
2013-01-21 13:30:00,9.3,-4.4,30.29,NW,307,15.0,25.0,53,0.00,,,0.00,Wunderground v.1.15,2013-01-21 19:30:00,
2013-01-21 13:34:00,9.4,-4.7,30.29,WNW,300,16.0,25.0,52,0.00,,,0.00,Wunderground v.1.15,2013-01-21 19:34:00,
2013-01-21 13:36:00,9.4,-4.3,30.29,WNW,295,16.0,25.0,53,0.00,,,0.00,Wunderground v.1.15,2013-01-21 19:36:00,
2013-01-21 13:40:00,9.4,-4.3,30.29,West,262,16.0,16.0,53,0.00,,,0.00,Wunderground v.1.15,2013-01-21 19:40:00,
2013-01-21 13:42:00,9.5,-4.6,30.29,WNW,287,16.0,17.0,52,0.00,,,0.00,Wunderground v.1.15,2013-01-21 19:42:00,
2013-01-21 13:44:00,9.4,-4.7,30.29,WNW,301,16.0,19.0,52,0.00,,,0.00,Wunderground v.1.15,2013-01-21 19:44:00,
2013-01-21 13:46:00,9.5,-4.2,30.28,WNW,295,16.0,20.0,53,0.00,,,0.00,Wunderground v.1.15,2013-01-21 19:46:00,
2013-01-21 13:48:00,9.6,-4.1,30.29,West,281,16.0,20.0,53,0.00,,,0.00,Wunderground v.1.15,2013-01-21 19:48:00,
2013-01-21 13:52:00,9.2,-5.3,30.28,WNW,300,17.0,25.0,51,0.00,,,0.00,Wunderground v.1.15,2013-01-21 19:52:00,
2013-01-21 13:54:00,9.2,-4.9,30.28,WNW,286,17.0,25.0,52,0.00,,,0.00,Wunderground v.1.15,2013-01-21 19:54:00,
2013-01-21 13:58:00,9.3,-4.8,30.29,West,275,17.0,25.0,52,0.00,,,0.00,Wunderground v.1.15,2013-01-21 19:58:00,
2013-01-21 14:04:00,9.3,-5.6,30.29,West,262,16.0,19.0,50,0.00,,,0.00,Wunderground v.1.15,2013-01-21 20:04:00,
2013-01-21 14:06:00,9.4,-5.1,30.29,WNW,287,16.0,19.0,51,0.00,,,0.00,Wunderground v.1.15,2013-01-21 20:06:00,
2013-01-21 14:10:00,9.8,-4.3,30.29,WNW,290,15.0,16.0,52,0.00,,,0.00,Wunderground v.1.15,2013-01-21 20:10:00,
2013-01-21 14:16:00,9.5,-5.0,30.29,WNW,291,14.0,18.0,51,0.00,,,0.00,Wunderground v.1.15,2013-01-21 20:16:00,
2013-01-21 14:18:00,9.7,-4.4,30.29,West,269,14.0,18.0,52,0.00,,,0.00,Wunderground v.1.15,2013-01-21 20:18:00,
2013-01-21 14:22:00,9.9,-4.6,30.29,WNW,287,14.0,15.0,51,0.00,,,0.00,Wunderground v.1.15,2013-01-21 20:22:00,
2013-01-21 14:24:00,10.2,-4.0,30.29,NW,306,14.0,21.0,52,0.00,,,0.00,Wunderground v.1.15,2013-01-21 20:24:00,
2013-01-21 14:26:00,10.0,-4.6,30.29,WNW,291,15.0,23.0,51,0.00,,,0.00,Wunderground v.1.15,2013-01-21 20:26:00,
2013-01-21 14:28:00,10.0,-4.2,30.29,WNW,297,17.0,23.0,52,0.00,,,0.00,Wunderground v.1.15,2013-01-21 20:28:00,
2013-01-21 14:32:00,10.0,-4.2,30.29,WNW,284,16.0,17.0,52,0.00,,,0.00,Wunderground v.1.15,2013-01-21 20:32:00,
2013-01-21 14:34:00,10.1,-3.7,30.30,West,269,15.0,18.0,53,0.00,,,0.00,Wunderground v.1.15,2013-01-21 20:34:00,
2013-01-21 14:36:00,10.2,-4.0,30.29,WNW,302,15.0,20.0,52,0.00,,,0.00,Wunderground v.1.15,2013-01-21 20:36:00,
2013-01-21 14:38:00,10.1,-4.1,30.29,NW,311,15.0,25.0,52,0.00,,,0.00,Wunderground v.1.15,2013-01-21 20:38:00,
2013-01-21 14:42:00,9.9,-4.2,30.29,West,277,16.0,18.0,52,0.00,,,0.00,Wunderground v.1.15,2013-01-21 20:42:00,
2013-01-21 14:44:00,9.9,-4.2,30.29,NW,324,18.0,18.0,52,0.00,,,0.00,Wunderground v.1.15,2013-01-21 20:44:00,
2013-01-21 14:50:00,10.1,-4.1,30.29,NW,304,18.0,21.0,52,0.00,,,0.00,Wunderground v.1.15,2013-01-21 20:50:00,
2013-01-21 14:52:00,10.0,-4.2,30.29,West,271,18.0,21.0,52,0.00,,,0.00,Wunderground v.1.15,2013-01-21 20:52:00,
2013-01-21 14:54:00,9.9,-4.2,30.30,NW,304,18.0,25.0,52,0.00,,,0.00,Wunderground v.1.15,2013-01-21 20:54:00,
2013-01-21 14:58:00,10.2,-3.6,30.29,West,276,18.0,25.0,53,0.00,,,0.00,Wunderground v.1.15,2013-01-21 20:58:00,
2013-01-21 15:00:00,10.1,-4.1,30.29,WNW,297,18.0,18.0,52,0.00,,,0.00,Wunderground v.1.15,2013-01-21 21:00:00,
2013-01-21 15:04:00,10.2,-4.0,30.29,WNW,302,17.0,18.0,52,0.00,,,0.00,Wunderground v.1.15,2013-01-21 21:04:00,
2013-01-21 15:08:00,10.2,-3.6,30.29,WNW,298,16.0,18.0,53,0.00,,,0.00,Wunderground v.1.15,2013-01-21 21:08:00,
2013-01-21 15:12:00,10.2,-4.0,30.30,WSW,252,16.0,18.0,52,0.00,,,0.00,Wunderground v.1.15,2013-01-21 21:12:00,
2013-01-21 15:14:00,10.3,-3.5,30.30,WNW,300,15.0,25.0,53,0.00,,,0.00,Wunderground v.1.15,2013-01-21 21:14:00,
2013-01-21 15:20:00,9.9,-4.2,30.30,WNW,291,16.0,19.0,52,0.00,,,0.00,Wunderground v.1.15,2013-01-21 21:20:00,
2013-01-21 15:22:00,10.0,-4.2,30.30,NW,311,16.0,19.0,52,0.00,,,0.00,Wunderground v.1.15,2013-01-21 21:22:00,
2013-01-21 15:24:00,10.1,-3.7,30.30,NW,309,17.0,19.0,53,0.00,,,0.00,Wunderground v.1.15,2013-01-21 21:24:00,
2013-01-21 15:28:00,10.2,-4.0,30.30,West,270,16.0,19.0,52,0.00,,,0.00,Wunderground v.1.15,2013-01-21 21:28:00,
2013-01-21 15:32:00,9.7,-4.4,30.30,West,276,17.0,17.0,52,0.00,,,0.00,Wunderground v.1.15,2013-01-21 21:32:00,
2013-01-21 15:34:00,9.6,-4.5,30.29,West,281,18.0,24.0,52,0.00,,,0.00,Wunderground v.1.15,2013-01-21 21:34:00,
2013-01-21 15:40:00,9.7,-3.6,30.30,West,266,18.0,18.0,54,0.00,,,0.00,Wunderground v.1.15,2013-01-21 21:40:00,
2013-01-21 15:44:00,10.0,-3.4,30.30,WNW,290,16.0,18.0,54,0.00,,,0.00,Wunderground v.1.15,2013-01-21 21:44:00,
2013-01-21 15:48:00,9.9,-3.8,30.30,West,263,14.0,18.0,53,0.00,,,0.00,Wunderground v.1.15,2013-01-21 21:48:00,
2013-01-21 15:50:00,9.9,-3.5,30.29,West,278,15.0,17.0,54,0.00,,,0.00,Wunderground v.1.15,2013-01-21 21:50:00,
2013-01-21 15:54:00,9.8,-3.5,30.30,WNW,293,16.0,17.0,54,0.00,,,0.00,Wunderground v.1.15,2013-01-21 21:54:00,
2013-01-21 15:56:00,9.8,-3.5,30.30,West,266,16.0,17.0,54,0.00,,,0.00,Wunderground v.1.15,2013-01-21 21:56:00,
2013-01-21 16:00:00,9.7,-3.6,30.30,WNW,284,16.0,16.0,54,0.00,,,0.00,Wunderground v.1.15,2013-01-21 22:00:00,
2013-01-21 16:04:00,9.5,-3.8,30.30,WNW,298,15.0,19.0,54,0.00,,,0.00,Wunderground v.1.15,2013-01-21 22:04:00,
2013-01-21 16:06:00,9.5,-3.4,30.30,WNW,298,15.0,19.0,55,0.00,,,0.00,Wunderground v.1.15,2013-01-21 22:06:00,
2013-01-21 16:08:00,9.6,-3.0,30.30,WNW,285,15.0,19.0,56,0.00,,,0.00,Wunderground v.1.15,2013-01-21 22:08:00,
2013-01-21 16:10:00,9.6,-3.3,30.30,WNW,293,15.0,15.0,55,0.00,,,0.00,Wunderground v.1.15,2013-01-21 22:10:00,
2013-01-21 16:16:00,9.4,-3.2,30.30,WNW,289,14.0,17.0,56,0.00,,,0.00,Wunderground v.1.15,2013-01-21 22:16:00,
2013-01-21 16:18:00,9.3,-3.6,30.30,WNW,300,15.0,17.0,55,0.00,,,0.00,Wunderground v.1.15,2013-01-21 22:18:00,
2013-01-21 16:20:00,9.2,-3.7,30.30,West,270,16.0,18.0,55,0.00,,,0.00,Wunderground v.1.15,2013-01-21 22:20:00,
2013-01-21 16:22:00,9.1,-3.8,30.30,WNW,293,17.0,18.0,55,0.00,,,0.00,Wunderground v.1.15,2013-01-21 22:22:00,
2013-01-21 16:24:00,9.0,-3.9,30.30,West,277,17.0,18.0,55,0.00,,,0.00,Wunderground v.1.15,2013-01-21 22:24:00,
2013-01-21 16:26:00,8.9,-3.6,30.30,WNW,302,17.0,18.0,56,0.00,,,0.00,Wunderground v.1.15,2013-01-21 22:26:00,
2013-01-21 16:30:00,8.8,-3.7,30.30,WNW,288,17.0,17.0,56,0.00,,,0.00,Wunderground v.1.15,2013-01-21 22:30:00,
2013-01-21 16:32:00,8.8,-3.7,30.30,WNW,293,17.0,17.0,56,0.00,,,0.00,Wunderground v.1.15,2013-01-21 22:32:00,
2013-01-21 16:36:00,8.6,-3.9,30.30,NW,309,17.0,22.0,56,0.00,,,0.00,Wunderground v.1.15,2013-01-21 22:36:00,
2013-01-21 16:38:00,8.6,-3.5,30.30,West,276,17.0,22.0,57,0.00,,,0.00,Wunderground v.1.15,2013-01-21 22:38:00,
2013-01-21 16:42:00,8.4,-4.1,30.30,WNW,298,16.0,22.0,56,0.00,,,0.00,Wunderground v.1.15,2013-01-21 22:42:00,
2013-01-21 16:46:00,8.3,-3.8,30.30,West,270,16.0,22.0,57,0.00,,,0.00,Wunderground v.1.15,2013-01-21 22:46:00,
2013-01-21 16:48:00,8.2,-3.9,30.30,West,281,16.0,22.0,57,0.00,,,0.00,Wunderground v.1.15,2013-01-21 22:48:00,
2013-01-21 16:52:00,8.0,-3.7,30.30,WNW,298,15.0,17.0,58,0.00,,,0.00,Wunderground v.1.15,2013-01-21 22:52:00,
2013-01-21 16:58:00,7.9,-3.1,30.30,WNW,291,13.0,17.0,60,0.00,,,0.00,Wunderground v.1.15,2013-01-21 22:58:00,
2013-01-21 17:00:00,7.8,-3.2,30.30,NW,304,13.0,13.0,60,0.00,,,0.00,Wunderground v.1.15,2013-01-21 23:00:00,
2013-01-21 17:02:00,7.8,-3.2,30.30,NW,309,12.0,13.0,60,0.00,,,0.00,Wunderground v.1.15,2013-01-21 23:02:00,
2013-01-21 17:04:00,7.8,-2.9,30.31,WNW,292,12.0,13.0,61,0.00,,,0.00,Wunderground v.1.15,2013-01-21 23:04:00,
2013-01-21 17:08:00,7.7,-3.3,30.31,West,278,12.0,13.0,60,0.00,,,0.00,Wunderground v.1.15,2013-01-21 23:08:00,
2013-01-21 17:10:00,7.7,-3.3,30.31,WNW,302,11.0,11.0,60,0.00,,,0.00,Wunderground v.1.15,2013-01-21 23:10:00,
2013-01-21 17:12:00,7.7,-3.3,30.31,WNW,297,12.0,15.0,60,0.00,,,0.00,Wunderground v.1.15,2013-01-21 23:12:00,
2013-01-21 17:18:00,7.6,-3.4,30.31,WNW,285,14.0,18.0,60,0.00,,,0.00,Wunderground v.1.15,2013-01-21 23:18:00,
2013-01-21 17:20:00,7.5,-3.5,30.31,WNW,301,15.0,15.0,60,0.00,,,0.00,Wunderground v.1.15,2013-01-21 23:20:00,
2013-01-21 17:26:00,7.4,-3.3,30.31,WNW,287,14.0,15.0,61,0.00,,,0.00,Wunderground v.1.15,2013-01-21 23:26:00,
2013-01-21 17:32:00,7.4,-3.3,30.31,West,281,13.0,13.0,61,0.00,,,0.00,Wunderground v.1.15,2013-01-21 23:32:00,
2013-01-21 17:34:00,7.4,-2.9,30.31,West,276,12.0,13.0,62,0.00,,,0.00,Wunderground v.1.15,2013-01-21 23:34:00,
2013-01-21 17:38:00,7.3,-3.0,30.31,WNW,300,11.0,13.0,62,0.00,,,0.00,Wunderground v.1.15,2013-01-21 23:38:00,
2013-01-21 17:40:00,7.3,-3.0,30.31,WNW,285,10.0,10.0,62,0.00,,,0.00,Wunderground v.1.15,2013-01-21 23:40:00,
2013-01-21 17:42:00,7.3,-2.7,30.31,NW,304,10.0,10.0,63,0.00,,,0.00,Wunderground v.1.15,2013-01-21 23:42:00,
2013-01-21 17:44:00,7.3,-3.0,30.31,West,275,11.0,11.0,62,0.00,,,0.00,Wunderground v.1.15,2013-01-21 23:44:00,
2013-01-21 17:48:00,7.3,-3.0,30.31,WNW,285,11.0,14.0,62,0.00,,,0.00,Wunderground v.1.15,2013-01-21 23:48:00,
2013-01-21 17:50:00,7.2,-2.8,30.31,WNW,295,11.0,13.0,63,0.00,,,0.00,Wunderground v.1.15,2013-01-21 23:50:00,
2013-01-21 17:54:00,7.2,-2.8,30.31,WNW,284,10.0,13.0,63,0.00,,,0.00,Wunderground v.1.15,2013-01-21 23:54:00,
2013-01-21 17:56:00,7.2,-2.8,30.31,WNW,284,10.0,13.0,63,0.00,,,0.00,Wunderground v.1.15,2013-01-21 23:56:00,
2013-01-21 18:00:00,7.2,-2.8,30.32,WNW,282,9.0,9.0,63,0.00,,,0.00,Wunderground v.1.15,2013-01-22 00:00:00,
2013-01-21 18:02:00,7.2,-2.4,30.32,WNW,295,9.0,9.0,64,0.00,,,0.00,Wunderground v.1.15,2013-01-22 00:02:00,
2013-01-21 18:06:00,7.0,-2.3,30.32,West,270,9.0,13.0,65,0.00,,,0.00,Wunderground v.1.15,2013-01-22 00:06:00,
2013-01-21 18:08:00,7.0,-2.6,30.32,NW,311,9.0,13.0,64,0.00,,,0.00,Wunderground v.1.15,2013-01-22 00:08:00,
2013-01-21 18:12:00,7.0,-2.6,30.32,WNW,283,9.0,13.0,64,0.00,,,0.00,Wunderground v.1.15,2013-01-22 00:12:00,
2013-01-21 18:16:00,7.0,-2.6,30.32,WNW,287,10.0,15.0,64,0.00,,,0.00,Wunderground v.1.15,2013-01-22 00:16:00,
2013-01-21 18:20:00,6.9,-2.4,30.32,WNW,295,10.0,12.0,65,0.00,,,0.00,Wunderground v.1.15,2013-01-22 00:20:00,
2013-01-21 18:24:00,6.9,-2.4,30.32,WNW,300,11.0,12.0,65,0.00,,,0.00,Wunderground v.1.15,2013-01-22 00:24:00,
2013-01-21 18:26:00,6.9,-2.4,30.32,WNW,288,11.0,12.0,65,0.00,,,0.00,Wunderground v.1.15,2013-01-22 00:26:00,
2013-01-21 18:28:00,6.8,-2.5,30.32,West,281,11.0,12.0,65,0.00,,,0.00,Wunderground v.1.15,2013-01-22 00:28:00,
2013-01-21 18:32:00,6.8,-2.8,30.32,West,278,12.0,13.0,64,0.00,,,0.00,Wunderground v.1.15,2013-01-22 00:32:00,
2013-01-21 18:36:00,6.7,-2.6,30.32,WNW,288,12.0,13.0,65,0.00,,,0.00,Wunderground v.1.15,2013-01-22 00:36:00,
2013-01-21 18:38:00,6.7,-2.6,30.32,WNW,300,13.0,15.0,65,0.00,,,0.00,Wunderground v.1.15,2013-01-22 00:38:00,
2013-01-21 18:40:00,6.6,-3.0,30.32,WNW,285,12.0,14.0,64,0.00,,,0.00,Wunderground v.1.15,2013-01-22 00:40:00,
2013-01-21 18:42:00,6.6,-3.0,30.32,WNW,294,12.0,14.0,64,0.00,,,0.00,Wunderground v.1.15,2013-01-22 00:42:00,
2013-01-21 18:46:00,6.6,-2.7,30.33,NW,304,12.0,14.0,65,0.00,,,0.00,Wunderground v.1.15,2013-01-22 00:46:00,
2013-01-21 18:48:00,6.5,-2.8,30.32,NW,305,12.0,14.0,65,0.00,,,0.00,Wunderground v.1.15,2013-01-22 00:48:00,
2013-01-21 18:50:00,6.5,-2.5,30.32,WNW,293,12.0,12.0,66,0.00,,,0.00,Wunderground v.1.15,2013-01-22 00:50:00,
2013-01-21 18:52:00,6.5,-2.8,30.33,WNW,288,11.0,14.0,65,0.00,,,0.00,Wunderground v.1.15,2013-01-22 00:52:00,
2013-01-21 18:56:00,6.4,-2.9,30.33,WNW,288,11.0,14.0,65,0.00,,,0.00,Wunderground v.1.15,2013-01-22 00:56:00,
2013-01-21 18:58:00,6.4,-2.5,30.33,West,277,11.0,14.0,66,0.00,,,0.00,Wunderground v.1.15,2013-01-22 00:58:00,
2013-01-21 19:02:00,6.3,-2.6,30.33,WNW,295,10.0,11.0,66,0.00,,,0.00,Wunderground v.1.15,2013-01-22 01:02:00,
2013-01-21 19:08:00,6.2,-2.4,30.33,WNW,295,9.0,11.0,67,0.00,,,0.00,Wunderground v.1.15,2013-01-22 01:08:00,
2013-01-21 19:10:00,6.2,-2.4,30.33,WNW,301,9.0,12.0,67,0.00,,,0.00,Wunderground v.1.15,2013-01-22 01:10:00,
2013-01-21 19:14:00,6.2,-2.4,30.33,WNW,302,10.0,12.0,67,0.00,,,0.00,Wunderground v.1.15,2013-01-22 01:14:00,
2013-01-21 19:16:00,6.1,-2.5,30.33,WNW,283,10.0,12.0,67,0.00,,,0.00,Wunderground v.1.15,2013-01-22 01:16:00,
2013-01-21 19:18:00,6.1,-2.5,30.33,WNW,291,10.0,12.0,67,0.00,,,0.00,Wunderground v.1.15,2013-01-22 01:18:00,
2013-01-21 19:22:00,6.0,-2.3,30.33,West,269,9.0,11.0,68,0.00,,,0.00,Wunderground v.1.15,2013-01-22 01:22:00,
2013-01-21 19:28:00,6.0,-2.6,30.33,NW,304,9.0,11.0,67,0.00,,,0.00,Wunderground v.1.15,2013-01-22 01:28:00,
2013-01-21 19:30:00,6.0,-2.6,30.33,WNW,289,10.0,10.0,67,0.00,,,0.00,Wunderground v.1.15,2013-01-22 01:30:00,
2013-01-21 19:32:00,5.9,-2.4,30.33,WNW,300,9.0,10.0,68,0.00,,,0.00,Wunderground v.1.15,2013-01-22 01:32:00,
2013-01-21 19:34:00,5.9,-2.4,30.33,WNW,295,9.0,10.0,68,0.00,,,0.00,Wunderground v.1.15,2013-01-22 01:34:00,
2013-01-21 19:38:00,5.9,-2.4,30.33,WNW,288,8.0,10.0,68,0.00,,,0.00,Wunderground v.1.15,2013-01-22 01:38:00,
2013-01-21 19:40:00,5.9,-2.4,30.33,WNW,293,8.0,10.0,68,0.00,,,0.00,Wunderground v.1.15,2013-01-22 01:40:00,
2013-01-21 19:44:00,5.8,-2.2,30.33,NW,304,8.0,12.0,69,0.00,,,0.00,Wunderground v.1.15,2013-01-22 01:44:00,
2013-01-21 19:50:00,5.9,-2.1,30.34,WNW,288,9.0,9.0,69,0.00,,,0.00,Wunderground v.1.15,2013-01-22 01:50:00,
2013-01-21 19:56:00,5.8,-2.2,30.34,WNW,295,8.0,11.0,69,0.00,,,0.00,Wunderground v.1.15,2013-01-22 01:56:00,
2013-01-21 20:02:00,5.7,-2.0,30.34,WNW,295,8.0,8.0,70,0.00,,,0.00,Wunderground v.1.15,2013-01-22 02:02:00,
2013-01-21 20:04:00,5.7,-2.0,30.34,West,278,8.0,8.0,70,0.00,,,0.00,Wunderground v.1.15,2013-01-22 02:04:00,
2013-01-21 20:06:00,5.7,-2.0,30.34,WNW,300,8.0,8.0,70,0.00,,,0.00,Wunderground v.1.15,2013-01-22 02:06:00,
2013-01-21 20:10:00,5.7,-2.0,30.34,WNW,290,8.0,8.0,70,0.00,,,0.00,Wunderground v.1.15,2013-01-22 02:10:00,
2013-01-21 20:12:00,5.8,-1.9,30.34,WNW,298,8.0,8.0,70,0.00,,,0.00,Wunderground v.1.15,2013-01-22 02:12:00,
2013-01-21 20:16:00,5.9,-2.1,30.34,WNW,297,9.0,9.0,69,0.00,,,0.00,Wunderground v.1.15,2013-01-22 02:16:00,
2013-01-21 20:18:00,5.9,-2.1,30.34,WNW,293,9.0,9.0,69,0.00,,,0.00,Wunderground v.1.15,2013-01-22 02:18:00,
2013-01-21 20:22:00,5.9,-1.8,30.34,WNW,295,9.0,11.0,70,0.00,,,0.00,Wunderground v.1.15,2013-01-22 02:22:00,
2013-01-21 20:28:00,5.9,-1.8,30.34,WNW,295,9.0,11.0,70,0.00,,,0.00,Wunderground v.1.15,2013-01-22 02:28:00,
2013-01-21 20:30:00,5.9,-2.1,30.34,WSW,250,9.0,11.0,69,0.00,,,0.00,Wunderground v.1.15,2013-01-22 02:30:00,
2013-01-21 20:36:00,6.0,-2.0,30.34,WNW,288,10.0,12.0,69,0.00,,,0.00,Wunderground v.1.15,2013-01-22 02:36:00,
2013-01-21 20:38:00,6.0,-2.0,30.34,WNW,295,10.0,13.0,69,0.00,,,0.00,Wunderground v.1.15,2013-01-22 02:38:00,
2013-01-21 20:42:00,6.0,-2.0,30.34,WNW,287,9.0,10.0,69,0.00,,,0.00,Wunderground v.1.15,2013-01-22 02:42:00,
2013-01-21 20:46:00,6.0,-2.0,30.34,WNW,293,9.0,10.0,69,0.00,,,0.00,Wunderground v.1.15,2013-01-22 02:46:00,
2013-01-21 20:50:00,6.1,-1.9,30.34,WNW,284,9.0,11.0,69,0.00,,,0.00,Wunderground v.1.15,2013-01-22 02:50:00,
2013-01-21 20:54:00,6.1,-2.2,30.35,WNW,288,10.0,13.0,68,0.00,,,0.00,Wunderground v.1.15,2013-01-22 02:54:00,
2013-01-21 20:58:00,6.2,-2.1,30.35,WNW,287,11.0,13.0,68,0.00,,,0.00,Wunderground v.1.15,2013-01-22 02:58:00,
2013-01-21 21:00:00,6.2,-2.1,30.35,WNW,289,11.0,11.0,68,0.00,,,0.00,Wunderground v.1.15,2013-01-22 03:00:00,
2013-01-21 21:02:00,6.2,-2.1,30.35,WNW,295,10.0,11.0,68,0.00,,,0.00,Wunderground v.1.15,2013-01-22 03:02:00,
2013-01-21 21:04:00,6.1,-2.2,30.35,WNW,293,10.0,11.0,68,0.00,,,0.00,Wunderground v.1.15,2013-01-22 03:04:00,
2013-01-21 21:06:00,6.2,-2.1,30.35,WNW,295,10.0,11.0,68,0.00,,,0.00,Wunderground v.1.15,2013-01-22 03:06:00,
2013-01-21 21:10:00,6.1,-2.2,30.35,NW,304,9.0,12.0,68,0.00,,,0.00,Wunderground v.1.15,2013-01-22 03:10:00,
2013-01-21 21:12:00,6.1,-2.2,30.35,WNW,291,10.0,12.0,68,0.00,,,0.00,Wunderground v.1.15,2013-01-22 03:12:00,
2013-01-21 21:14:00,6.1,-2.2,30.35,WNW,294,11.0,12.0,68,0.00,,,0.00,Wunderground v.1.15,2013-01-22 03:14:00,
2013-01-21 21:16:00,6.1,-2.2,30.35,WNW,287,11.0,14.0,68,0.00,,,0.00,Wunderground v.1.15,2013-01-22 03:16:00,
2013-01-21 21:18:00,6.2,-2.1,30.35,WNW,300,12.0,14.0,68,0.00,,,0.00,Wunderground v.1.15,2013-01-22 03:18:00,
2013-01-21 21:22:00,6.1,-2.2,30.35,West,281,12.0,12.0,68,0.00,,,0.00,Wunderground v.1.15,2013-01-22 03:22:00,
2013-01-21 21:24:00,6.2,-2.1,30.35,WNW,298,12.0,12.0,68,0.00,,,0.00,Wunderground v.1.15,2013-01-22 03:24:00,
2013-01-21 21:28:00,6.1,-1.9,30.35,West,280,11.0,12.0,69,0.00,,,0.00,Wunderground v.1.15,2013-01-22 03:28:00,
2013-01-21 21:30:00,6.1,-2.2,30.35,WNW,284,11.0,12.0,68,0.00,,,0.00,Wunderground v.1.15,2013-01-22 03:30:00,
2013-01-21 21:34:00,6.0,-2.0,30.35,West,280,10.0,12.0,69,0.00,,,0.00,Wunderground v.1.15,2013-01-22 03:34:00,
2013-01-21 21:36:00,6.0,-2.0,30.35,West,262,10.0,12.0,69,0.00,,,0.00,Wunderground v.1.15,2013-01-22 03:36:00,
2013-01-21 21:38:00,6.0,-2.0,30.35,WNW,295,10.0,12.0,69,0.00,,,0.00,Wunderground v.1.15,2013-01-22 03:38:00,
2013-01-21 21:42:00,5.9,-2.1,30.35,WNW,295,10.0,16.0,69,0.00,,,0.00,Wunderground v.1.15,2013-01-22 03:42:00,
2013-01-21 21:44:00,5.9,-2.1,30.35,WSW,240,10.0,16.0,69,0.00,,,0.00,Wunderground v.1.15,2013-01-22 03:44:00,
2013-01-21 21:46:00,5.9,-1.8,30.35,WNW,295,10.0,16.0,70,0.00,,,0.00,Wunderground v.1.15,2013-01-22 03:46:00,
2013-01-21 21:48:00,5.8,-1.9,30.35,WNW,301,10.0,16.0,70,0.00,,,0.00,Wunderground v.1.15,2013-01-22 03:48:00,
2013-01-21 21:50:00,5.8,-1.9,30.35,WSW,256,10.0,12.0,70,0.00,,,0.00,Wunderground v.1.15,2013-01-22 03:50:00,
2013-01-21 21:52:00,5.9,-1.8,30.35,WNW,290,11.0,12.0,70,0.00,,,0.00,Wunderground v.1.15,2013-01-22 03:52:00,
2013-01-21 21:54:00,5.9,-1.8,30.35,WNW,298,11.0,12.0,70,0.00,,,0.00,Wunderground v.1.15,2013-01-22 03:54:00,
2013-01-21 21:56:00,5.8,-1.9,30.35,WNW,294,11.0,12.0,70,0.00,,,0.00,Wunderground v.1.15,2013-01-22 03:56:00,
2013-01-21 21:58:00,5.8,-1.9,30.35,WNW,301,11.0,14.0,70,0.00,,,0.00,Wunderground v.1.15,2013-01-22 03:58:00,
2013-01-21 22:02:00,5.9,-1.8,30.35,WSW,257,11.0,17.0,70,0.00,,,0.00,Wunderground v.1.15,2013-01-22 04:02:00,
2013-01-21 22:06:00,5.8,-1.9,30.35,WNW,284,12.0,17.0,70,0.00,,,0.00,Wunderground v.1.15,2013-01-22 04:06:00,
2013-01-21 22:08:00,5.8,-2.2,30.35,West,281,12.0,17.0,69,0.00,,,0.00,Wunderground v.1.15,2013-01-22 04:08:00,
2013-01-21 22:10:00,5.9,-1.8,30.35,NW,309,12.0,12.0,70,0.00,,,0.00,Wunderground v.1.15,2013-01-22 04:10:00,
2013-01-21 22:12:00,5.9,-2.1,30.35,WNW,295,12.0,12.0,69,0.00,,,0.00,Wunderground v.1.15,2013-01-22 04:12:00,
2013-01-21 22:14:00,5.9,-2.1,30.35,West,278,12.0,12.0,69,0.00,,,0.00,Wunderground v.1.15,2013-01-22 04:14:00,
2013-01-21 22:20:00,5.8,-1.9,30.35,WNW,285,12.0,12.0,70,0.00,,,0.00,Wunderground v.1.15,2013-01-22 04:20:00,
2013-01-21 22:22:00,5.8,-1.9,30.35,West,274,12.0,14.0,70,0.00,,,0.00,Wunderground v.1.15,2013-01-22 04:22:00,
2013-01-21 22:26:00,5.7,-2.0,30.35,WNW,291,11.0,14.0,70,0.00,,,0.00,Wunderground v.1.15,2013-01-22 04:26:00,
2013-01-21 22:30:00,5.7,-2.0,30.35,WNW,300,11.0,16.0,70,0.00,,,0.00,Wunderground v.1.15,2013-01-22 04:30:00,
2013-01-21 22:32:00,5.7,-2.0,30.36,West,273,11.0,16.0,70,0.00,,,0.00,Wunderground v.1.15,2013-01-22 04:32:00,
2013-01-21 22:38:00,5.6,-2.1,30.36,WNW,300,10.0,16.0,70,0.00,,,0.00,Wunderground v.1.15,2013-01-22 04:38:00,
2013-01-21 22:40:00,5.6,-2.1,30.36,West,276,10.0,11.0,70,0.00,,,0.00,Wunderground v.1.15,2013-01-22 04:40:00,
2013-01-21 22:42:00,5.6,-1.8,30.36,WNW,298,10.0,11.0,71,0.00,,,0.00,Wunderground v.1.15,2013-01-22 04:42:00,
2013-01-21 22:44:00,5.5,-1.9,30.36,WNW,284,10.0,11.0,71,0.00,,,0.00,Wunderground v.1.15,2013-01-22 04:44:00,
2013-01-21 22:48:00,5.5,-1.9,30.36,WNW,293,10.0,11.0,71,0.00,,,0.00,Wunderground v.1.15,2013-01-22 04:48:00,
2013-01-21 22:50:00,5.4,-2.0,30.36,WNW,292,9.0,9.0,71,0.00,,,0.00,Wunderground v.1.15,2013-01-22 04:50:00,
2013-01-21 22:54:00,5.4,-2.0,30.36,WNW,293,8.0,9.0,71,0.00,,,0.00,Wunderground v.1.15,2013-01-22 04:54:00,
2013-01-21 22:58:00,5.4,-2.0,30.36,WNW,300,8.0,9.0,71,0.00,,,0.00,Wunderground v.1.15,2013-01-22 04:58:00,
2013-01-21 23:02:00,5.4,-2.0,30.36,WNW,298,10.0,10.0,71,0.00,,,0.00,Wunderground v.1.15,2013-01-22 05:02:00,
2013-01-21 23:04:00,5.4,-2.0,30.36,WNW,295,10.0,11.0,71,0.00,,,0.00,Wunderground v.1.15,2013-01-22 05:04:00,
2013-01-21 23:10:00,5.4,-2.0,30.36,West,278,10.0,14.0,71,0.00,,,0.00,Wunderground v.1.15,2013-01-22 05:10:00,
2013-01-21 23:14:00,5.3,-2.1,30.36,West,281,10.0,14.0,71,0.00,,,0.00,Wunderground v.1.15,2013-01-22 05:14:00,
2013-01-21 23:18:00,5.3,-1.8,30.36,NW,309,10.0,14.0,72,0.00,,,0.00,Wunderground v.1.15,2013-01-22 05:18:00,
2013-01-21 23:24:00,5.2,-1.9,30.36,WNW,288,10.0,18.0,72,0.00,,,0.00,Wunderground v.1.15,2013-01-22 05:24:00,
2013-01-21 23:26:00,5.2,-1.9,30.36,WNW,297,11.0,18.0,72,0.00,,,0.00,Wunderground v.1.15,2013-01-22 05:26:00,
2013-01-21 23:28:00,5.2,-1.9,30.36,WNW,288,11.0,18.0,72,0.00,,,0.00,Wunderground v.1.15,2013-01-22 05:28:00,
2013-01-21 23:32:00,5.3,-2.4,30.36,WNW,297,12.0,14.0,70,0.00,,,0.00,Wunderground v.1.15,2013-01-22 05:32:00,
2013-01-21 23:34:00,5.3,-2.4,30.36,WNW,293,13.0,17.0,70,0.00,,,0.00,Wunderground v.1.15,2013-01-22 05:34:00,
2013-01-21 23:38:00,5.2,-2.2,30.36,WNW,289,13.0,17.0,71,0.00,,,0.00,Wunderground v.1.15,2013-01-22 05:38:00,
2013-01-21 23:40:00,5.2,-2.2,30.36,WNW,288,13.0,13.0,71,0.00,,,0.00,Wunderground v.1.15,2013-01-22 05:40:00,
2013-01-21 23:42:00,5.1,-2.0,30.36,NW,304,12.0,13.0,72,0.00,,,0.00,Wunderground v.1.15,2013-01-22 05:42:00,
2013-01-21 23:44:00,5.1,-2.0,30.36,West,281,12.0,17.0,72,0.00,,,0.00,Wunderground v.1.15,2013-01-22 05:44:00,
2013-01-21 23:48:00,5.1,-2.6,30.35,WNW,290,12.0,17.0,70,0.00,,,0.00,Wunderground v.1.15,2013-01-22 05:48:00,
2013-01-21 23:50:00,5.1,-2.6,30.36,WNW,288,13.0,13.0,70,0.00,,,0.00,Wunderground v.1.15,2013-01-22 05:50:00,
2013-01-21 23:54:00,5.1,-2.9,30.36,WNW,301,15.0,17.0,69,0.00,,,0.00,Wunderground v.1.15,2013-01-22 05:54:00,
2013-01-21 23:56:00,5.1,-2.9,30.36,West,271,15.0,17.0,69,0.00,,,0.00,Wunderground v.1.15,2013-01-22 05:56:00,